Lewistown, MT

1:02 AM MST on November 19, 2017 (GMT -0700)
Lewistown Municipal

Weather History for KLWT - October, 2013

Change the Weather History Date:

Monday, October 14, 2013

  Actual Average Record
Temperature  
Mean Temperature 39 °F 44 °F  
Max Temperature 43 °F 58 °F 82 °F (1958)
Min Temperature 34 °F 31 °F 10 °F (1969)
Degree Days  
Heating Degree Days 26 21  
Month to date heating degree days 319 258  
Since 1 July heating degree days 582 735  
Cooling Degree Days 0 0  
Month to date cooling degree days 0 0  
Year to date cooling degree days 277 210  
Moisture  
Dew Point 34 °F    
Average Humidity 85    
Maximum Humidity 100    
Minimum Humidity 70    
Precipitation  
Precipitation 0.05 in 0.04 in 0.92 in (1962)
Month to date precipitation 0.60 0.58  
Year to date precipitation 21.01 14.93  
Snow  
Snow 0.00 in - - ()
Snow Depth 0.00 in    
Sea Level Pressure  
Sea Level Pressure 30.34 in    
Wind  
Wind Speed 4 mph (WNW)    
Max Wind Speed 9 mph    
Max Gust Speed 16 mph    
Visibility 10 miles    
Events Rain    
T = Trace of Precipitation, MM = Missing Value Source: NWS Daily Summary

Daily Weather History Graph

Daily Weather History Graph

Search for Another Location

Airport or City:

Trip Planner

Search our weather history database for the weather conditions in past years. The results will help you decide how hot, cold, wet, or windy it might be!

Date:

Astronomy

Oct. 14, 2013 Rise Set
Actual Time 7:35 AM MDT 6:31 PM MDT
Civil Twilight 7:04 AM MDT 7:02 PM MDT
Nautical Twilight 6:29 AM MDT 7:37 PM MDT
Astronomical Twilight 5:53 AM MDT 8:12 PM MDT
Moon 4:17 PM MDT (10/14) 2:38 AM MDT (10/14)
Length of Visible Light 11h 58m
Length of Day
10h 56m
Waxing Gibbous, 80% of the Moon is Illuminated
Oct 14
Waxing Gibbous
Oct 18
Full
Oct 26
Last Quarter
Nov 3
New
Nov 9
First Quarter

Hourly Weather History & Observations

Time (MDT) Temp. Windchill Dew Point Humidity Pressure Visibility Wind Dir Wind Speed Gust Speed Precip Events Conditions
12:23 AM 33.8 °F - 33.8 °F 100% 30.23 in 10.0 mi Calm Calm - 0.02 in Rain Light Rain
12:35 AM 33.8 °F - 33.8 °F 100% 30.23 in 10.0 mi Calm Calm - 0.02 in Rain Light Rain
12:54 AM 34.0 °F - 33.1 °F 96% 30.27 in 8.0 mi Calm Calm - 0.03 in Rain Light Rain
1:54 AM 34.0 °F - 33.1 °F 96% 30.27 in 9.0 mi Calm Calm - 0.02 in Rain Light Rain
2:21 AM 33.8 °F - 33.8 °F 100% 30.23 in 10.0 mi Calm Calm - 0.00 in   Overcast
2:54 AM 34.0 °F - 34.0 °F 100% 30.28 in 10.0 mi Calm Calm - 0.00 in   Overcast
3:54 AM 34.0 °F - 33.1 °F 96% 30.28 in 10.0 mi Calm Calm - 0.00 in Rain Light Rain
4:45 AM 33.8 °F 30.8 °F 33.8 °F 100% 30.24 in 7.0 mi WSW 3.5 mph - 0.01 in Rain Light Rain
4:54 AM 34.0 °F 31.0 °F 33.1 °F 96% 30.30 in 9.0 mi WSW 3.5 mph - 0.01 in Rain Light Rain
5:54 AM 34.0 °F - 34.0 °F 100% 30.32 in 10.0 mi Calm Calm - 0.01 in Rain Light Rain
6:23 AM 33.8 °F 30.8 °F 33.8 °F 100% 30.26 in 10.0 mi WNW 3.5 mph - 0.00 in Rain Light Rain
6:49 AM 35.6 °F 32.8 °F 33.8 °F 93% 30.27 in 8.0 mi WNW 3.5 mph - 0.01 in Rain Light Rain
6:54 AM 35.1 °F 32.2 °F 34.0 °F 96% 30.33 in 8.0 mi West 3.5 mph - 0.01 in Rain Light Rain
7:12 AM 35.6 °F 32.8 °F 35.6 °F 100% 30.27 in 10.0 mi West 3.5 mph - 0.00 in Rain Light Rain
7:54 AM 35.1 °F 29.3 °F 35.1 °F 100% 30.35 in 10.0 mi WNW 6.9 mph - 0.00 in   Overcast
8:07 AM 35.6 °F 29.9 °F 35.6 °F 100% 30.29 in 9.0 mi WNW 6.9 mph - N/A   Overcast
8:32 AM 35.6 °F 30.7 °F 35.6 °F 100% 30.30 in 9.0 mi NW 5.8 mph - 0.00 in Rain Light Rain
8:42 AM 35.6 °F 30.7 °F 35.6 °F 100% 30.30 in 10.0 mi WNW 5.8 mph - 0.00 in Rain Light Rain
8:54 AM 35.1 °F 29.3 °F 35.1 °F 100% 30.37 in 10.0 mi WNW 6.9 mph - 0.00 in Rain Light Rain
8:59 AM 35.6 °F 30.7 °F 35.6 °F 100% 30.31 in 10.0 mi WNW 5.8 mph - 0.00 in Rain Light Rain
9:33 AM 35.6 °F 30.7 °F 35.6 °F 100% 30.31 in 10.0 mi NW 5.8 mph - 0.00 in   Overcast
9:50 AM 37.4 °F 32.8 °F 35.6 °F 93% 30.32 in 10.0 mi WNW 5.8 mph - 0.00 in   Overcast
9:54 AM 37.0 °F 33.3 °F 36.0 °F 96% 30.38 in 10.0 mi NW 4.6 mph - 0.00 in   Overcast
10:43 AM 37.4 °F 32.1 °F 35.6 °F 93% 30.32 in 10.0 mi WNW 6.9 mph - N/A   Overcast
10:54 AM 37.9 °F 32.7 °F 37.0 °F 97% 30.39 in 10.0 mi NW 6.9 mph - N/A   Overcast
11:54 AM 39.0 °F 35.7 °F 36.0 °F 89% 30.40 in 10.0 mi North 4.6 mph - N/A   Overcast
12:54 PM 41.0 °F 38.0 °F 35.1 °F 79% 30.40 in 10.0 mi NNE 4.6 mph - N/A   Overcast
1:54 PM 39.9 °F 36.7 °F 30.9 °F 70% 30.40 in 10.0 mi NE 4.6 mph - 0.00 in Rain Light Rain
2:21 PM 39.2 °F 35.9 °F 33.8 °F 81% 30.33 in 10.0 mi East 4.6 mph - 0.00 in   Overcast
2:40 PM 39.2 °F 35.9 °F 33.8 °F 81% 30.34 in 10.0 mi ENE 4.6 mph - 0.00 in   Overcast
2:54 PM 39.9 °F 36.7 °F 32.0 °F 73% 30.40 in 10.0 mi ENE 4.6 mph - 0.00 in   Overcast
3:54 PM 41.0 °F 39.0 °F 32.0 °F 70% 30.40 in 10.0 mi North 3.5 mph - N/A   Overcast
4:54 PM 41.0 °F - 33.1 °F 73% 30.40 in 10.0 mi Calm Calm - 0.00 in   Overcast
5:54 PM 39.9 °F 37.8 °F 32.0 °F 73% 30.42 in 10.0 mi NW 3.5 mph - N/A   Overcast
6:54 PM 39.9 °F 36.7 °F 32.0 °F 73% 30.42 in 10.0 mi NW 4.6 mph - N/A   Overcast
7:54 PM 39.0 °F - 33.1 °F 79% 30.44 in 10.0 mi Calm Calm - N/A   Overcast
8:54 PM 37.0 °F 34.5 °F 34.0 °F 89% 30.45 in 10.0 mi SW 3.5 mph - N/A   Overcast
9:54 PM 36.0 °F 32.1 °F 35.1 °F 97% 30.45 in 10.0 mi SW 4.6 mph - N/A   Overcast
10:54 PM 34.0 °F 28.0 °F 33.1 °F 96% 30.46 in 10.0 mi SW 6.9 mph - N/A   Overcast
11:54 PM 35.1 °F 32.2 °F 33.1 °F 92% 30.46 in 10.0 mi South 3.5 mph - N/A   Overcast